CAPE
756 796 858 842 812 781 775 739 721 398 307 462 587 578 537 463 353 300 343 442 496 584 688 715 778 934 984 857 771 777 823 870 850 666 505 520 549 565 543 526 517 493
871 849 786 730 710 682 652 653 695 508 395 579 671 608 538 430 410 348 431 470 488 546 605 698 800 956 1017 875 771 789 845 884 863 712 660 634 620 553 531 539 540 478
600 834 830 723 622 557 538 538 604 601 513 619 706 533 484 480 369 394 434 434 459 514 594 720 770 954 1049 902 726 678 704 768 761 742 686 592 530 490 534 576 551 470
696 926 916 778 640 597 563 630 681 683 611 644 675 501 477 548 419 391 424 444 496 582 673 769 814 900 1048 960 720 670 676 675 648 624 610 566 549 550 560 576 589 543
579 781 811 794 694 541 499 700 798 834 745 662 603 492 515 544 462 450 444 507 589 652 704 771 849 878 864 850 804 750 772 700 638 642 638 662 627 576 481 493 550 578
419 532 517 506 520 655 679 772 784 792 741 646 547 461 527 537 522 561 572 606 661 704 699 678 620 613 724 745 688 679 732 684 674 688 720 725 646 504 428 406 425 439
525 450 513 607 623 725 826 725 773 717 738 694 515 416 483 533 487 585 650 664 722 714 619 553 498 421 580 665 682 702 686 698 708 769 802 784 654 586 588 560 492 459
622 565 525 533 578 675 777 764 785 764 747 612 426 385 477 528 505 598 710 728 694 653 610 576 525 470 577 678 758 794 801 816 867 864 852 820 685 705 703 654 568 542
649 634 680 726 713 722 918 953 823 738 762 543 373 390 529 542 535 618 698 652 630 609 545 455 421 426 524 607 717 824 874 897 894 871 843 828 778 757 739 690 654 636
514 512 566 689 671 742 863 918 860 773 741 584 388 482 580 563 518 593 632 579 606 584 443 383 367 375 403 538 641 753 815 826 855 887 892 879 820 786 733 681 686 690
472 497 470 428 482 496 652 799 751 705 665 534 453 545 549 556 511 544 574 479 551 473 363 349 350 359 396 499 563 570 502 534 618 741 830 823 769 761 722 658 685 746
420 446 448 420 453 572 632 721 728 692 661 538 431 433 473 480 522 504 530 494 400 384 346 346 354 364 352 287 278 296 328 380 458 594 674 673 707 745 683 605 679 788
347 400 434 451 453 513 644 727 741 680 548 477 442 355 450 619 450 453 479 479 406 382 366 370 372 361 325 304 274 308 322 348 398 482 533 580 628 629 601 577 655 777
193 246 310 380 464 476 521 589 689 738 606 489 426 348 403 497 407 417 480 428 385 404 400 374 351 332 321 285 246 258 261 313 328 385 513 592 600 602 577 566 678 772
1 162 209 295 398 476 436 395 456 643 708 496 410 340 354 438 450 442 436 351 410 415 320 332 326 319 299 267 209 193 203 220 0 50 334 364 345 352 403 468 575 660
1 1 28 226 272 299 344 411 418 535 711 524 406 345 329 436 505 470 406 396 393 356 248 278 304 302 269 218 167 130 0 0 0 0 0 0 0 0 269 364 481 555
1 1 3 15 128 197 234 292 369 471 587 472 398 363 341 402 424 372 409 413 360 317 228 204 224 258 205 174 20 0 0 0 0 0 0 0 0 0 249 373 493 490
0 1 1 1 10 71 91 183 240 294 380 419 396 278 256 291 383 274 341 348 330 304 193 157 186 192 132 93 0 0 0 0 0 0 0 0 0 0 332 436 508 380
0 1 1 1 5 41 41 53 114 193 178 394 374 250 197 214 190 173 243 278 271 99 66 107 174 144 77 11 0 0 0 0 0 0 0 0 0 197 252 249 321 0
0 0 1 1 7 33 36 52 62 46 203 254 296 197 194 124 217 107 187 170 25 0 16 91 132 116 65 0 0 0 0 0 0 0 0 0 0 201 137 117 21 0
0 0 0 0 0 6 13 34 28 21 12 276 308 216 134 140 113 72 137 62 0 0 48 104 97 106 74 22 0 0 0 0 0 0 0 104 176 188 167 113 64 55
0 0 0 0 0 16 24 14 17 26 54 210 272 148 105 165 41 110 129 23 0 0 45 96 98 95 76 0 0 0 0 0 0 0 0 151 191 207 185 148 86 72
0 0 0 0 0 8 16 7 4 27 63 176 192 78 130 102 52 98 110 35 0 0 58 103 88 66 52 0 0 0 0 0 0 0 93 168 192 183 166 140 98 60
0 0 1 0 0 0 5 9 6 18 37 138 175 134 120 146 57 86 98 87 0 0 39 111 98 58 48 0 0 0 0 0 0 20 116 178 165 138 147 144 104 66
0 0 0 0 0 0 0 8 17 24 20 109 142 136 85 28 33 98 109 107 75 15 0 57 106 97 59 52 2 0 0 0 0 0 73 124 134 114 110 138 157 110
0 0 0 0 2 0 0 4 1 3 18 28 73 96 81 70 27 83 44 2 2 36 1 0 0 95 50 58 41 13 0 0 0 0 0 36 52 55 54 88 113 96
Wind_Speed
20 19 18 19 19 20 20 19 20 18 18 20 23 23 21 20 21 21 22 24 24 24 24 23 23 22 22 22 21 21 20 19 20 21 20 20 18 20 19 19 19 18
22 18 17 18 20 21 19 20 21 20 21 22 23 24 23 22 20 21 22 23 23 24 25 25 24 24 24 23 21 21 21 20 20 22 21 20 19 20 19 19 18 19
17 14 13 16 18 21 21 23 23 22 22 22 23 24 24 23 22 21 22 22 23 24 24 24 25 25 25 23 22 22 22 21 20 21 21 19 21 20 19 20 20 20
17 14 14 19 21 22 24 28 28 26 25 25 21 22 24 23 23 24 24 23 24 25 25 26 25 26 26 25 25 23 23 21 21 21 21 22 20 21 21 21 21 21
21 19 21 24 26 28 32 27 24 26 25 23 23 22 22 24 25 25 26 26 27 27 28 27 27 28 28 28 28 26 24 23 23 22 22 21 20 20 21 21 21 21
22 18 21 28 29 28 22 17 20 23 24 24 21 21 22 24 25 25 25 27 27 28 28 28 29 29 30 30 30 27 25 24 23 22 22 21 20 20 21 20 22 22
22 21 20 23 21 21 19 22 24 23 23 23 25 22 24 24 24 24 24 26 28 27 27 28 30 30 30 31 30 27 24 24 23 22 21 20 20 20 20 20 21 22
22 24 21 20 24 25 23 26 27 25 24 27 26 26 28 26 24 24 24 25 26 27 27 28 29 29 30 31 29 26 24 23 23 22 20 20 19 20 20 19 21 23
24 24 22 20 23 25 23 23 25 25 26 25 27 29 30 27 25 23 22 24 25 25 25 26 27 28 30 29 27 26 24 23 23 22 21 20 19 19 20 21 22 23
22 20 22 25 25 18 16 19 22 23 24 23 25 28 27 27 24 21 20 22 23 24 24 25 27 28 29 27 26 26 26 24 23 22 21 20 20 20 21 22 22 24
14 17 23 23 18 19 20 20 20 22 24 26 25 23 22 24 23 20 18 19 22 24 25 26 25 26 27 27 26 26 26 26 24 22 21 21 20 21 21 22 22 22
12 14 21 21 21 23 23 20 20 21 21 19 19 20 22 20 21 21 18 18 22 25 26 25 24 25 26 26 25 25 26 26 25 23 22 23 23 24 24 24 24 24
11 13 17 19 21 23 22 21 21 21 20 19 21 21 22 19 19 22 19 20 22 25 26 25 24 26 27 26 25 25 26 26 26 25 26 26 27 26 26 26 26 25
14 13 15 18 19 17 17 21 24 22 21 22 23 23 23 22 21 23 23 22 23 25 26 27 27 27 28 27 27 28 28 27 27 28 29 29 29 28 26 25 24 24
nan 16 15 17 18 16 16 19 22 23 22 23 25 27 29 28 28 26 28 27 27 27 28 29 29 28 28 28 30 31 30 28 nan nan 30 32 31 28 25 25 23 24
nan nan nan 17 19 18 17 18 19 21 24 26 26 27 28 26 29 30 26 27 28 30 31 32 31 29 27 28 31 31 nan nan nan nan nan nan nan nan 27 26 26 27
nan nan nan nan 19 19 19 19 18 20 22 24 26 28 29 30 30 30 26 26 27 29 32 32 31 28 28 29 nan nan nan nan nan nan nan nan nan nan 26 26 27 28
nan nan nan nan nan nan nan 19 20 21 21 23 26 28 28 30 30 29 27 28 30 30 32 32 30 29 28 nan nan nan nan nan nan nan nan nan nan nan 28 28 29 29
nan nan nan nan nan nan nan nan 22 22 23 25 25 26 28 30 31 32 30 30 31 nan nan 31 30 30 nan nan nan nan nan nan nan nan nan nan nan 30 30 30 30 nan
nan nan nan nan nan nan nan nan nan nan 27 28 29 29 29 31 34 35 33 33 nan nan nan nan 31 31 nan nan nan nan nan nan nan nan nan nan nan 32 32 32 nan nan
nan nan nan nan nan nan nan nan nan nan nan 31 31 30 30 30 32 nan 35 nan nan nan nan 29 nan 33 nan nan nan nan nan nan nan nan nan 36 35 34 34 33 nan nan
nan nan nan nan nan nan nan nan nan nan nan 30 32 33 33 34 nan 39 38 nan nan nan nan nan nan nan nan nan nan nan nan nan nan nan nan 36 35 34 33 33 nan nan
nan nan nan nan nan nan nan nan nan nan nan 27 33 nan 36 37 nan nan 39 nan nan nan nan 30 nan nan nan nan nan nan nan nan nan nan nan 37 35 33 34 34 nan nan
nan nan nan nan nan nan nan nan nan nan nan 29 32 35 39 39 nan nan nan nan nan nan nan 34 nan nan nan nan nan nan nan nan nan nan 39 37 36 37 36 36 38 nan
nan nan nan nan nan nan nan nan nan nan nan 33 37 40 nan nan nan nan 43 42 nan nan nan nan 38 nan nan nan nan nan nan nan nan nan nan 39 39 40 38 36 36 38
nan nan nan nan nan nan nan nan nan nan nan nan nan nan nan nan nan nan nan nan nan nan nan nan nan nan nan nan nan nan nan nan nan nan nan nan nan nan nan nan 37 nan
Wind_Direction
250 248 253 247 243 248 248 244 242 243 248 241 238 241 246 246 249 251 249 247 246 246 248 248 246 246 247 250 252 255 258 264 264 265 269 269 269 275 278 281 278 277
238 237 244 245 242 245 248 247 245 245 247 247 243 244 243 245 245 249 250 249 248 248 247 247 247 250 252 251 255 258 259 260 264 259 265 269 268 274 278 283 281 270
251 250 243 249 247 246 247 248 247 244 245 244 243 243 243 238 242 244 249 251 252 250 248 248 251 253 256 255 258 261 262 263 262 260 262 267 265 270 273 274 270 274
253 249 237 234 236 238 238 241 238 236 237 239 239 241 242 239 241 246 248 251 253 252 252 253 255 254 255 258 261 259 262 263 261 261 259 257 262 266 268 268 267 265
243 235 229 229 232 230 232 230 233 238 239 237 236 238 240 241 242 245 247 248 248 249 251 253 252 252 253 255 259 259 259 259 257 257 257 259 260 264 264 266 267 268
239 242 240 239 235 236 241 239 239 243 242 238 238 239 239 241 244 247 249 251 249 251 252 252 253 252 254 257 258 259 261 259 256 256 256 260 260 259 262 266 268 269
244 248 253 254 255 249 238 231 229 233 239 239 240 241 243 245 248 251 254 255 256 256 256 256 256 256 256 259 260 261 261 259 255 255 258 257 260 262 263 268 270 271
238 245 252 242 232 232 235 232 230 232 235 240 247 250 252 253 253 252 253 257 258 259 257 256 258 260 261 260 261 261 261 252 253 255 256 257 259 264 265 266 269 270
235 244 250 240 232 228 228 234 236 240 242 245 249 254 257 259 259 257 257 259 259 259 259 259 260 261 260 261 260 262 260 252 250 254 255 256 259 264 267 266 267 267
235 249 257 249 242 241 239 239 242 247 255 257 256 257 263 262 263 263 262 264 264 261 262 262 259 257 258 257 259 259 257 256 253 252 254 259 263 265 267 268 268 266
222 240 246 251 254 249 245 246 247 248 255 257 250 249 259 266 267 264 263 264 264 264 262 262 260 257 256 255 254 255 258 257 256 255 257 260 263 266 267 269 267 267
216 238 248 253 255 257 259 258 253 247 248 255 268 267 257 249 267 270 268 264 258 258 259 260 258 255 255 257 257 255 256 257 257 258 260 260 262 262 263 262 263 263
219 232 254 259 257 258 262 264 261 256 254 256 258 260 266 263 257 269 266 265 260 256 255 255 252 248 250 253 255 255 259 261 259 258 257 256 258 261 263 262 263 262
216 236 258 268 268 271 273 266 267 266 261 255 256 260 263 263 264 269 266 263 261 258 255 252 248 246 247 252 256 257 258 261 261 258 256 256 259 260 263 265 267 268
nan 232 254 270 280 285 282 278 275 274 271 265 258 256 258 259 258 260 265 263 257 254 254 250 247 245 247 254 258 256 256 260 nan nan 257 257 259 260 260 261 261 260
nan nan nan 267 276 281 281 283 286 282 276 271 266 263 262 261 260 259 258 263 261 255 251 251 246 240 244 263 264 260 nan nan nan nan nan nan nan nan 257 254 253 251
nan nan nan nan 271 276 277 281 288 281 273 271 267 265 263 259 257 261 253 250 258 259 256 254 250 241 241 255 nan nan nan nan nan nan nan nan nan nan 264 259 254 252
nan nan nan nan nan nan nan 281 281 278 276 272 268 264 261 259 258 259 251 244 247 253 255 256 255 244 242 nan nan nan nan nan nan nan nan nan nan nan 260 258 258 257
nan nan nan nan nan nan nan nan 278 275 271 268 265 263 262 260 255 254 248 240 244 nan nan 250 251 244 nan nan nan nan nan nan nan nan nan nan nan 260 260 260 259 nan
nan nan nan nan nan nan nan nan nan nan 263 258 258 258 260 256 251 248 241 237 nan nan nan nan 244 234 nan nan nan nan nan nan nan nan nan nan nan 257 258 257 nan nan
nan nan nan nan nan nan nan nan nan nan nan 251 252 251 253 254 253 nan 240 nan nan nan nan 240 nan 233 nan nan nan nan nan nan nan nan nan 259 256 254 254 253 nan nan
nan nan nan nan nan nan nan nan nan nan nan 250 251 248 247 244 nan 237 240 nan nan nan nan nan nan nan nan nan nan nan nan nan nan nan nan 259 255 253 253 252 nan nan
nan nan nan nan nan nan nan nan nan nan nan 243 250 nan 250 239 nan nan 237 nan nan nan nan 239 nan nan nan nan nan nan nan nan nan nan nan 254 252 251 253 254 nan nan
nan nan nan nan nan nan nan nan nan nan nan 240 246 253 249 237 nan nan nan nan nan nan nan 240 nan nan nan nan nan nan nan nan nan nan 253 251 252 252 254 253 253 nan
nan nan nan nan nan nan nan nan nan nan nan 245 239 242 nan nan nan nan 234 235 nan nan nan nan 237 nan nan nan nan nan nan nan nan nan nan 254 256 255 252 254 252 250
nan nan nan nan nan nan nan nan nan nan nan nan nan nan nan nan nan nan nan nan nan nan nan nan nan nan nan nan nan nan nan nan nan nan nan nan nan nan nan nan 254 nan